Location: Jackson
(35.6140°N, 88.8140°W)
Time: 06:43:44
(UTC-06:00)

CUTE 1.7 + AOD 2 - Visible Passes

Search period start: 15 December 2019 00:00
Search period end: 25 December 2019 00:00
Orbit: 593 x 612 km, 97.6° (Epoch: 14 December)

Date Brightness Start Highest point End Pass type
(mag) Time Alt. Az. Time Alt. Az. Time Alt. Az.
15 Dec ? 05:35:41 10° N 05:39:51 59° WNW 05:44:02 10° SSW visible
16 Dec ? 04:13:44 10° ENE 04:15:53 14° E 04:18:00 10° ESE visible
16 Dec ? 05:47:48 10° N 05:51:49 41° WNW 05:55:50 10° SW visible
17 Dec ? 04:24:56 10° NE 04:27:57 19° E 04:30:59 10° SE visible
17 Dec ? 06:00:02 10° N 06:03:45 30° WNW 06:07:29 10° SW visible
18 Dec ? 04:36:27 10° NE 04:40:02 26° E 04:43:36 10° SSE visible
18 Dec ? 06:12:22 10° NNW 06:15:40 22° WNW 06:18:58 10° WSW visible
19 Dec ? 04:48:09 10° NNE 04:52:05 36° E 04:56:01 10° SSE visible
19 Dec ? 06:24:52 10° NNW 06:27:34 17° WNW 06:30:15 10° WSW visible
19 Dec ? 17:13:06 10° SSW 17:16:50 32° W 17:20:37 10° NNW visible
20 Dec ? 04:59:58 10° NNE 05:04:07 50° E 05:08:16 10° S visible
20 Dec ? 17:25:34 10° SSW 17:28:53 23° W 17:32:15 10° NW visible
21 Dec ? 05:11:51 10° NNE 05:16:08 72° ESE 05:20:23 10° S visible
21 Dec ? 17:38:17 10° SW 17:40:58 17° W 17:43:40 10° NW visible
22 Dec ? 05:23:50 10° N 05:28:07 81° WNW 05:32:23 10° SSW visible
22 Dec ? 17:51:31 10° WSW 17:53:04 12° W 17:54:38 10° WNW visible
23 Dec ? 05:35:54 10° N 05:40:05 57° WNW 05:44:17 10° SSW visible
24 Dec ? 04:13:49 10° ENE 04:16:06 14° E 04:18:23 10° SE visible
24 Dec ? 05:48:02 10° N 05:52:02 40° WNW 05:56:02 10° SW visible
